Time,TemperatureF,DewpointF,PressureIn,WindDirection,WindDirectionDegrees,WindSpeedMPH,WindSpeedGustMPH,Humidity,HourlyPrecipIn,Conditions,Clouds,dailyrainin,SoftwareType,DateUTC
2013-06-11 00:02:00,54.1,26.4,31.87,East,90,1.0,2.0,34,0.00,,,0.00,meteohub,2013-06-11 06:02:00,
2013-06-11 00:07:00,54.1,26.4,31.87,East,90,1.0,2.0,34,0.00,,,0.00,meteohub,2013-06-11 06:07:00,
2013-06-11 00:12:00,52.0,27.1,31.88,South,180,0.0,2.0,38,0.00,,,0.00,meteohub,2013-06-11 06:12:00,
2013-06-11 00:17:00,51.3,28.4,31.87,SE,135,0.0,1.0,41,0.00,,,0.00,meteohub,2013-06-11 06:17:00,
2013-06-11 00:22:00,50.7,29.1,31.87,NW,315,0.0,1.0,43,0.00,,,0.00,meteohub,2013-06-11 06:22:00,
2013-06-11 00:27:00,50.2,28.6,31.87,NW,315,0.0,2.0,43,0.00,,,0.00,meteohub,2013-06-11 06:27:00,
2013-06-11 00:32:00,50.0,28.4,31.87,West,270,0.0,2.0,43,0.00,,,0.00,meteohub,2013-06-11 06:32:00,
2013-06-11 00:37:00,50.0,28.4,31.87,NW,315,0.0,0.0,43,0.00,,,0.00,meteohub,2013-06-11 06:37:00,
2013-06-11 00:42:00,49.5,28.4,31.87,East,90,0.0,0.0,44,0.00,,,0.00,meteohub,2013-06-11 06:42:00,
2013-06-11 00:47:00,49.1,28.8,31.87,North,0,0.0,0.0,45,0.00,,,0.00,meteohub,2013-06-11 06:47:00,
2013-06-11 00:52:00,48.9,28.6,31.87,SE,135,0.0,0.0,45,0.00,,,0.00,meteohub,2013-06-11 06:52:00,
2013-06-11 00:57:00,48.7,28.4,31.86,NW,315,0.0,0.0,45,0.00,,,0.00,meteohub,2013-06-11 06:57:00,
2013-06-11 01:02:00,48.6,28.8,31.86,South,180,0.0,0.0,46,0.00,,,0.00,meteohub,2013-06-11 07:02:00,
2013-06-11 01:08:00,48.2,28.4,31.87,West,270,3.0,0.0,46,0.00,,,0.00,meteohub,2013-06-11 07:08:00,
2013-06-11 01:13:00,47.8,28.6,31.87,South,180,2.0,3.0,47,0.00,,,0.00,meteohub,2013-06-11 07:13:00,
2013-06-11 01:18:00,47.5,28.2,31.87,West,270,0.0,3.0,47,0.00,,,0.00,meteohub,2013-06-11 07:18:00,
2013-06-11 01:24:00,47.1,28.4,31.87,NW,315,0.0,3.0,48,0.00,,,0.00,meteohub,2013-06-11 07:24:00,
2013-06-11 01:30:00,46.9,28.2,31.86,West,270,2.0,2.0,48,0.00,,,0.00,meteohub,2013-06-11 07:30:00,
2013-06-11 01:35:00,46.9,28.2,31.86,SW,225,2.0,2.0,48,0.00,,,0.00,meteohub,2013-06-11 07:35:00,
2013-06-11 01:40:00,46.8,28.0,31.86,NNW,338,2.0,2.0,48,0.00,,,0.00,meteohub,2013-06-11 07:40:00,
2013-06-11 01:45:00,46.6,28.4,31.87,SW,225,2.0,2.0,49,0.00,,,0.00,meteohub,2013-06-11 07:45:00,
2013-06-11 01:51:00,46.2,28.0,31.86,West,270,1.0,2.0,49,0.00,,,0.00,meteohub,2013-06-11 07:51:00,
2013-06-11 01:56:00,45.9,27.9,31.86,South,180,0.0,3.0,49,0.00,,,0.00,meteohub,2013-06-11 07:56:00,
2013-06-11 02:02:00,45.7,28.0,31.86,West,270,2.0,3.0,50,0.00,,,0.00,meteohub,2013-06-11 08:02:00,
2013-06-11 02:07:00,45.7,28.0,31.86,West,270,2.0,3.0,50,0.00,,,0.00,meteohub,2013-06-11 08:07:00,
2013-06-11 02:12:00,46.0,28.4,31.86,SW,225,0.0,2.0,50,0.00,,,0.00,meteohub,2013-06-11 08:12:00,
2013-06-11 02:17:00,45.9,28.2,31.86,SW,225,0.0,2.0,50,0.00,,,0.00,meteohub,2013-06-11 08:17:00,
2013-06-11 02:22:00,45.5,27.9,31.86,SW,225,2.0,2.0,50,0.00,,,0.00,meteohub,2013-06-11 08:22:00,
2013-06-11 02:27:00,45.3,27.9,31.86,North,0,0.0,2.0,50,0.00,,,0.00,meteohub,2013-06-11 08:27:00,
2013-06-11 02:33:00,45.1,28.0,31.86,South,180,2.0,2.0,51,0.00,,,0.00,meteohub,2013-06-11 08:33:00,
2013-06-11 02:38:00,45.0,27.9,31.86,NE,45,0.0,2.0,51,0.00,,,0.00,meteohub,2013-06-11 08:38:00,
2013-06-11 02:44:00,45.1,28.0,31.86,South,180,0.0,2.0,51,0.00,,,0.00,meteohub,2013-06-11 08:44:00,
2013-06-11 02:49:00,44.8,27.7,31.86,SW,225,0.0,2.0,51,0.00,,,0.00,meteohub,2013-06-11 08:49:00,
2013-06-11 02:55:00,44.6,27.5,31.86,North,0,0.0,0.0,51,0.00,,,0.00,meteohub,2013-06-11 08:55:00,
2013-06-11 03:01:00,44.6,27.5,31.86,SW,225,0.0,2.0,51,0.00,,,0.00,meteohub,2013-06-11 09:01:00,
2013-06-11 03:07:00,44.4,27.9,31.86,West,270,0.0,2.0,52,0.00,,,0.00,meteohub,2013-06-11 09:07:00,
2013-06-11 03:12:00,44.4,28.4,31.86,South,180,0.0,2.0,53,0.00,,,0.00,meteohub,2013-06-11 09:12:00,
2013-06-11 03:17:00,44.2,28.2,31.86,SW,225,0.0,2.0,53,0.00,,,0.00,meteohub,2013-06-11 09:17:00,
2013-06-11 03:22:00,43.9,27.9,31.86,SW,225,0.0,2.0,53,0.00,,,0.00,meteohub,2013-06-11 09:22:00,
2013-06-11 03:27:00,43.7,27.7,31.86,SW,225,0.0,2.0,53,0.00,,,0.00,meteohub,2013-06-11 09:27:00,
2013-06-11 03:32:00,43.7,28.2,31.86,West,270,2.0,0.0,54,0.00,,,0.00,meteohub,2013-06-11 09:32:00,
2013-06-11 03:37:00,43.5,28.0,31.86,SW,225,2.0,4.0,54,0.00,,,0.00,meteohub,2013-06-11 09:37:00,
2013-06-11 03:42:00,43.3,27.9,31.86,SW,225,2.0,4.0,54,0.00,,,0.00,meteohub,2013-06-11 09:42:00,
2013-06-11 03:47:00,42.8,27.3,31.86,SW,225,2.0,4.0,54,0.00,,,0.00,meteohub,2013-06-11 09:47:00,
2013-06-11 03:53:00,42.3,27.3,31.86,South,180,0.0,2.0,55,0.00,,,0.00,meteohub,2013-06-11 09:53:00,
2013-06-11 03:59:00,41.7,27.1,31.86,West,270,2.0,2.0,56,0.00,,,0.00,meteohub,2013-06-11 09:59:00,
2013-06-11 04:04:00,41.7,27.1,31.86,West,270,1.0,2.0,56,0.00,,,0.00,meteohub,2013-06-11 10:04:00,
2013-06-11 04:09:00,41.2,27.1,31.86,SW,225,0.0,2.0,57,0.00,,,0.00,meteohub,2013-06-11 10:09:00,
2013-06-11 04:15:00,41.2,27.1,31.86,SW,225,0.0,1.0,57,0.00,,,0.00,meteohub,2013-06-11 10:15:00,
2013-06-11 04:20:00,41.0,27.3,31.86,SW,225,0.0,2.0,58,0.00,,,0.00,meteohub,2013-06-11 10:20:00,
2013-06-11 04:26:00,41.0,27.3,31.86,WSW,248,1.0,3.0,58,0.00,,,0.00,meteohub,2013-06-11 10:26:00,
2013-06-11 04:32:00,41.0,27.9,31.86,West,270,3.0,3.0,59,0.00,,,0.00,meteohub,2013-06-11 10:32:00,
2013-06-11 04:37:00,41.2,27.9,31.86,SE,135,0.0,4.0,59,0.00,,,0.00,meteohub,2013-06-11 10:37:00,
2013-06-11 04:42:00,41.4,28.0,31.86,East,90,2.0,6.0,59,0.00,,,0.00,meteohub,2013-06-11 10:42:00,
2013-06-11 04:47:00,41.4,27.7,31.86,South,180,0.0,6.0,58,0.00,,,0.00,meteohub,2013-06-11 10:47:00,
2013-06-11 04:52:00,41.4,27.7,31.86,NW,315,2.0,6.0,58,0.00,,,0.00,meteohub,2013-06-11 10:52:00,
2013-06-11 04:57:00,41.0,27.3,31.86,SW,225,1.0,4.0,58,0.00,,,0.00,meteohub,2013-06-11 10:57:00,
2013-06-11 05:03:00,40.6,27.5,31.86,SE,135,2.0,3.0,59,0.00,,,0.00,meteohub,2013-06-11 11:03:00,
2013-06-11 05:08:00,40.1,27.3,31.86,NW,315,0.0,3.0,60,0.00,,,0.00,meteohub,2013-06-11 11:08:00,
2013-06-11 05:14:00,39.6,26.8,31.86,SW,225,0.0,3.0,60,0.00,,,0.00,meteohub,2013-06-11 11:14:00,
2013-06-11 05:19:00,39.0,27.1,31.86,South,180,2.0,2.0,62,0.00,,,0.00,meteohub,2013-06-11 11:19:00,
2013-06-11 05:25:00,38.7,27.1,31.86,NE,45,0.0,2.0,63,0.00,,,0.00,meteohub,2013-06-11 11:25:00,
2013-06-11 05:30:00,38.7,27.5,31.87,SW,225,2.0,2.0,64,0.00,,,0.00,meteohub,2013-06-11 11:30:00,
2013-06-11 05:36:00,38.5,27.3,31.87,SW,225,2.0,3.0,64,0.00,,,0.00,meteohub,2013-06-11 11:36:00,
2013-06-11 05:41:00,38.5,27.3,31.86,SW,225,0.0,3.0,64,0.00,,,0.00,meteohub,2013-06-11 11:41:00,
2013-06-11 05:47:00,38.5,27.7,31.86,West,270,0.0,4.0,65,0.00,,,0.00,meteohub,2013-06-11 11:47:00,
2013-06-11 05:52:00,38.7,27.9,31.87,SW,225,0.0,4.0,65,0.00,,,0.00,meteohub,2013-06-11 11:52:00,
2013-06-11 05:57:00,39.2,28.0,31.87,SW,225,0.0,4.0,64,0.00,,,0.00,meteohub,2013-06-11 11:57:00,
2013-06-11 06:02:00,39.4,27.9,31.86,SW,225,0.0,2.0,63,0.00,,,0.00,meteohub,2013-06-11 12:02:00,
2013-06-11 06:07:00,39.4,27.9,31.87,SW,225,0.0,2.0,63,0.00,,,0.00,meteohub,2013-06-11 12:07:00,
2013-06-11 06:12:00,39.4,27.5,31.87,SW,225,0.0,2.0,62,0.00,,,0.00,meteohub,2013-06-11 12:12:00,
2013-06-11 06:17:00,39.6,27.7,31.87,West,270,2.0,2.0,62,0.00,,,0.00,meteohub,2013-06-11 12:17:00,
2013-06-11 06:22:00,40.1,28.0,31.87,SE,135,0.0,3.0,62,0.00,,,0.00,meteohub,2013-06-11 12:22:00,
2013-06-11 06:27:00,40.6,28.6,31.87,SW,225,0.0,3.0,62,0.00,,,0.00,meteohub,2013-06-11 12:27:00,
2013-06-11 06:32:00,41.4,28.9,31.86,ENE,68,0.0,3.0,61,0.00,,,0.00,meteohub,2013-06-11 12:32:00,
2013-06-11 06:38:00,42.3,29.3,31.86,SW,225,2.0,0.0,60,0.00,,,0.00,meteohub,2013-06-11 12:38:00,
2013-06-11 06:44:00,43.3,29.5,31.86,North,0,1.0,2.0,58,0.00,,,0.00,meteohub,2013-06-11 12:44:00,
2013-06-11 06:49:00,44.8,30.0,31.86,South,180,3.0,3.0,56,0.00,,,0.00,meteohub,2013-06-11 12:49:00,
2013-06-11 06:55:00,45.0,30.6,31.86,North,0,0.0,2.0,57,0.00,,,0.00,meteohub,2013-06-11 12:55:00,
2013-06-11 07:00:00,45.9,31.1,31.86,North,0,2.0,4.0,56,0.00,,,0.00,meteohub,2013-06-11 13:00:00,
2013-06-11 07:06:00,46.4,31.6,31.86,SE,135,2.0,4.0,56,0.00,,,0.00,meteohub,2013-06-11 13:06:00,
2013-06-11 07:11:00,47.5,32.2,31.86,East,90,0.0,4.0,55,0.00,,,0.00,meteohub,2013-06-11 13:11:00,
2013-06-11 07:17:00,49.1,33.3,31.86,South,180,3.0,3.0,54,0.00,,,0.00,meteohub,2013-06-11 13:17:00,
2013-06-11 07:22:00,49.6,31.8,31.86,South,180,2.0,3.0,50,0.00,,,0.00,meteohub,2013-06-11 13:22:00,
2013-06-11 07:28:00,50.7,31.3,31.85,West,270,0.0,4.0,47,0.00,,,0.00,meteohub,2013-06-11 13:28:00,
2013-06-11 07:33:00,52.3,30.6,31.85,NW,315,0.0,4.0,43,0.00,,,0.00,meteohub,2013-06-11 13:33:00,
2013-06-11 07:38:00,54.0,30.7,31.85,NE,45,2.0,3.0,41,0.00,,,0.00,meteohub,2013-06-11 13:38:00,
2013-06-11 07:43:00,55.4,29.5,31.84,NE,45,3.0,3.0,37,0.00,,,0.00,meteohub,2013-06-11 13:43:00,
2013-06-11 07:49:00,56.3,30.4,31.84,NE,45,0.0,2.0,37,0.00,,,0.00,meteohub,2013-06-11 13:49:00,
2013-06-11 07:54:00,57.4,30.6,31.84,West,270,2.0,4.0,36,0.00,,,0.00,meteohub,2013-06-11 13:54:00,
2013-06-11 08:00:00,58.5,31.6,31.84,NE,45,6.0,6.0,36,0.00,,,0.00,meteohub,2013-06-11 14:00:00,
2013-06-11 08:06:00,58.5,31.6,31.84,NE,45,6.0,6.0,36,0.00,,,0.00,meteohub,2013-06-11 14:06:00,
2013-06-11 08:11:00,60.4,32.0,31.84,SE,135,0.0,6.0,34,0.00,,,0.00,meteohub,2013-06-11 14:11:00,
2013-06-11 08:17:00,61.3,31.3,31.84,South,180,2.0,6.0,32,0.00,,,0.00,meteohub,2013-06-11 14:17:00,
2013-06-11 08:22:00,62.6,32.4,31.83,NE,45,2.0,6.0,32,0.00,,,0.00,meteohub,2013-06-11 14:22:00,
2013-06-11 08:28:00,62.8,32.5,31.83,NW,315,0.0,3.0,32,0.00,,,0.00,meteohub,2013-06-11 14:28:00,
2013-06-11 08:33:00,63.5,32.4,31.84,East,90,3.0,4.0,31,0.00,,,0.00,meteohub,2013-06-11 14:33:00,
2013-06-11 08:38:00,63.7,32.5,31.84,East,90,2.0,4.0,31,0.00,,,0.00,meteohub,2013-06-11 14:38:00,
2013-06-11 08:43:00,64.8,32.5,31.84,East,90,3.0,4.0,30,0.00,,,0.00,meteohub,2013-06-11 14:43:00,
2013-06-11 08:49:00,66.0,31.1,31.84,WSW,248,2.0,4.0,27,0.00,,,0.00,meteohub,2013-06-11 14:49:00,
2013-06-11 08:55:00,67.6,28.6,31.84,South,180,3.0,4.0,23,0.00,,,0.00,meteohub,2013-06-11 14:55:00,
2013-06-11 09:00:00,68.2,23.0,31.84,NE,45,4.0,6.0,18,0.00,,,0.00,meteohub,2013-06-11 15:00:00,
2013-06-11 09:06:00,69.1,22.5,31.84,NE,45,4.0,6.0,17,0.00,,,0.00,meteohub,2013-06-11 15:06:00,
2013-06-11 09:11:00,69.4,21.2,31.84,West,270,4.0,6.0,16,0.00,,,0.00,meteohub,2013-06-11 15:11:00,
2013-06-11 09:17:00,69.1,21.0,31.85,East,90,4.0,9.0,16,0.00,,,0.00,meteohub,2013-06-11 15:17:00,
2013-06-11 09:22:00,70.2,20.3,31.84,SE,135,7.0,9.0,15,0.00,,,0.00,meteohub,2013-06-11 15:22:00,
2013-06-11 09:28:00,70.3,20.5,31.84,East,90,3.0,9.0,15,0.00,,,0.00,meteohub,2013-06-11 15:28:00,
2013-06-11 09:34:00,71.2,21.2,31.84,NW,315,4.0,7.0,15,0.00,,,0.00,meteohub,2013-06-11 15:34:00,
2013-06-11 09:39:00,71.4,21.4,31.84,WSW,248,6.0,7.0,15,0.00,,,0.00,meteohub,2013-06-11 15:39:00,
2013-06-11 09:44:00,72.0,18.5,31.84,East,90,6.0,10.0,13,0.00,,,0.00,meteohub,2013-06-11 15:44:00,
2013-06-11 09:50:00,72.0,18.5,31.84,SW,225,5.0,10.0,13,0.00,,,0.00,meteohub,2013-06-11 15:50:00,
2013-06-11 09:55:00,71.6,18.1,31.84,SW,225,5.0,12.0,13,0.00,,,0.00,meteohub,2013-06-11 15:55:00,
2013-06-11 10:01:00,72.0,18.5,31.84,SW,225,8.0,12.0,13,0.00,,,0.00,meteohub,2013-06-11 16:01:00,
2013-06-11 10:07:00,72.0,18.5,31.84,SW,225,8.0,11.0,13,0.00,,,0.00,meteohub,2013-06-11 16:07:00,
2013-06-11 10:12:00,72.3,18.7,31.84,South,180,5.0,12.0,13,0.00,,,0.00,meteohub,2013-06-11 16:12:00,
2013-06-11 10:17:00,72.0,18.5,31.84,SE,135,7.0,12.0,13,0.00,,,0.00,meteohub,2013-06-11 16:17:00,
2013-06-11 10:22:00,72.0,18.5,31.84,NE,45,10.0,12.0,13,0.00,,,0.00,meteohub,2013-06-11 16:22:00,
2013-06-11 10:27:00,72.0,18.5,31.84,South,180,7.0,11.0,13,0.00,,,0.00,meteohub,2013-06-11 16:27:00,
2013-06-11 10:32:00,72.0,18.5,31.84,South,180,5.0,11.0,13,0.00,,,0.00,meteohub,2013-06-11 16:32:00,
2013-06-11 10:38:00,72.3,18.7,31.84,SE,135,12.0,12.0,13,0.00,,,0.00,meteohub,2013-06-11 16:38:00,
2013-06-11 10:44:00,72.5,18.9,31.84,SE,135,5.0,11.0,13,0.00,,,0.00,meteohub,2013-06-11 16:44:00,
2013-06-11 10:49:00,72.7,19.0,31.84,NW,315,5.0,13.0,13,0.00,,,0.00,meteohub,2013-06-11 16:49:00,
2013-06-11 10:54:00,73.0,19.2,31.83,SW,225,11.0,13.0,13,0.00,,,0.00,meteohub,2013-06-11 16:54:00,
2013-06-11 11:00:00,73.0,19.2,31.83,South,180,6.0,12.0,13,0.00,,,0.00,meteohub,2013-06-11 17:00:00,
2013-06-11 11:05:00,73.2,19.4,31.84,SW,225,11.0,17.0,13,0.00,,,0.00,meteohub,2013-06-11 17:05:00,
2013-06-11 11:10:00,72.7,19.0,31.83,West,270,14.0,17.0,13,0.00,,,0.00,meteohub,2013-06-11 17:10:00,
2013-06-11 11:16:00,72.9,19.2,31.84,South,180,8.0,21.0,13,0.00,,,0.00,meteohub,2013-06-11 17:16:00,
2013-06-11 11:21:00,73.2,19.4,31.84,SE,135,3.0,21.0,13,0.00,,,0.00,meteohub,2013-06-11 17:21:00,
2013-06-11 11:27:00,73.6,24.6,31.84,SW,225,4.0,21.0,16,0.00,,,0.00,meteohub,2013-06-11 17:27:00,
2013-06-11 11:32:00,73.9,25.0,31.84,South,180,13.0,13.0,16,0.00,,,0.00,meteohub,2013-06-11 17:32:00,
2013-06-11 11:37:00,73.8,24.8,31.84,SW,225,5.0,15.0,16,0.00,,,0.00,meteohub,2013-06-11 17:37:00,
2013-06-11 11:43:00,73.9,25.0,31.84,SW,225,6.0,15.0,16,0.00,,,0.00,meteohub,2013-06-11 17:43:00,
2013-06-11 11:48:00,75.0,25.7,31.84,South,180,11.0,14.0,16,0.00,,,0.00,meteohub,2013-06-11 17:48:00,
2013-06-11 11:54:00,75.2,24.4,31.84,NW,315,4.0,14.0,15,0.00,,,0.00,meteohub,2013-06-11 17:54:00,
2013-06-11 11:59:00,75.0,25.7,31.84,South,180,15.0,20.0,16,0.00,,,0.00,meteohub,2013-06-11 17:59:00,
2013-06-11 12:04:00,74.8,25.7,31.84,South,180,8.0,20.0,16,0.00,,,0.00,meteohub,2013-06-11 18:04:00,
2013-06-11 12:10:00,74.5,25.3,31.84,West,270,6.0,20.0,16,0.00,,,0.00,meteohub,2013-06-11 18:10:00,
2013-06-11 12:15:00,74.3,25.2,31.83,West,270,5.0,15.0,16,0.00,,,0.00,meteohub,2013-06-11 18:15:00,
2013-06-11 12:20:00,74.8,25.7,31.84,SE,135,5.0,15.0,16,0.00,,,0.00,meteohub,2013-06-11 18:20:00,
2013-06-11 12:26:00,75.6,24.6,31.84,SW,225,10.0,10.0,15,0.00,,,0.00,meteohub,2013-06-11 18:26:00,
2013-06-11 12:31:00,75.6,24.6,31.83,West,270,5.0,10.0,15,0.00,,,0.00,meteohub,2013-06-11 18:31:00,
2013-06-11 12:37:00,75.9,25.0,31.84,South,180,13.0,13.0,15,0.00,,,0.00,meteohub,2013-06-11 18:37:00,
2013-06-11 12:42:00,75.9,25.0,31.83,East,90,7.0,13.0,15,0.00,,,0.00,meteohub,2013-06-11 18:42:00,
2013-06-11 12:47:00,75.9,25.0,31.83,West,270,5.0,13.0,15,0.00,,,0.00,meteohub,2013-06-11 18:47:00,
2013-06-11 12:52:00,76.3,25.2,31.83,SE,135,5.0,13.0,15,0.00,,,0.00,meteohub,2013-06-11 18:52:00,
2013-06-11 12:58:00,75.6,24.6,31.83,NW,315,12.0,16.0,15,0.00,,,0.00,meteohub,2013-06-11 18:58:00,
2013-06-11 13:04:00,75.6,24.6,31.83,South,180,5.0,16.0,15,0.00,,,0.00,meteohub,2013-06-11 19:04:00,
2013-06-11 13:10:00,76.5,25.3,31.83,East,90,13.0,16.0,15,0.00,,,0.00,meteohub,2013-06-11 19:10:00,
2013-06-11 13:15:00,76.3,25.2,31.83,SW,225,15.0,16.0,15,0.00,,,0.00,meteohub,2013-06-11 19:15:00,
2013-06-11 13:20:00,76.6,25.5,31.82,NE,45,5.0,15.0,15,0.00,,,0.00,meteohub,2013-06-11 19:20:00,
2013-06-11 13:26:00,77.0,24.1,31.83,West,270,9.0,18.0,14,0.00,,,0.00,meteohub,2013-06-11 19:26:00,
2013-06-11 13:31:00,77.0,24.1,31.83,South,180,8.0,18.0,14,0.00,,,0.00,meteohub,2013-06-11 19:31:00,
2013-06-11 13:37:00,77.0,24.1,31.83,SW,225,11.0,18.0,14,0.00,,,0.00,meteohub,2013-06-11 19:37:00,
2013-06-11 13:42:00,77.7,24.8,31.83,South,180,8.0,14.0,14,0.00,,,0.00,meteohub,2013-06-11 19:42:00,
2013-06-11 13:47:00,78.1,25.0,31.83,SW,225,7.0,14.0,14,0.00,,,0.00,meteohub,2013-06-11 19:47:00,
2013-06-11 13:52:00,78.4,25.3,31.82,NNW,338,4.0,12.0,14,0.00,,,0.00,meteohub,2013-06-11 19:52:00,
2013-06-11 13:57:00,78.6,25.5,31.83,SW,225,15.0,15.0,14,0.00,,,0.00,meteohub,2013-06-11 19:57:00,
2013-06-11 14:02:00,78.1,25.0,31.82,South,180,17.0,17.0,14,0.00,,,0.00,meteohub,2013-06-11 20:02:00,
2013-06-11 14:07:00,77.0,24.1,31.82,West,270,13.0,17.0,14,0.00,,,0.00,meteohub,2013-06-11 20:07:00,
2013-06-11 14:13:00,77.0,24.1,31.83,South,180,11.0,17.0,14,0.00,,,0.00,meteohub,2013-06-11 20:13:00,
2013-06-11 14:18:00,76.8,25.7,31.82,SW,225,10.0,17.0,15,0.00,,,0.00,meteohub,2013-06-11 20:18:00,
2013-06-11 14:24:00,76.5,25.3,31.82,SW,225,13.0,17.0,15,0.00,,,0.00,meteohub,2013-06-11 20:24:00,
2013-06-11 14:30:00,77.0,24.1,31.82,SW,225,8.0,22.0,14,0.00,,,0.00,meteohub,2013-06-11 20:30:00,
2013-06-11 14:35:00,77.2,24.3,31.83,East,90,11.0,18.0,14,0.00,,,0.00,meteohub,2013-06-11 20:35:00,
2013-06-11 14:41:00,76.8,25.7,31.82,SSE,158,11.0,18.0,15,0.00,,,0.00,meteohub,2013-06-11 20:41:00,
2013-06-11 14:46:00,76.8,25.7,31.82,SE,135,8.0,18.0,15,0.00,,,0.00,meteohub,2013-06-11 20:46:00,
2013-06-11 14:52:00,77.0,24.1,31.82,West,270,18.0,18.0,14,0.00,,,0.00,meteohub,2013-06-11 20:52:00,
2013-06-11 14:57:00,76.8,25.7,31.82,East,90,8.0,18.0,15,0.00,,,0.00,meteohub,2013-06-11 20:57:00,
2013-06-11 15:02:00,76.8,25.7,31.82,South,180,11.0,18.0,15,0.00,,,0.00,meteohub,2013-06-11 21:02:00,
2013-06-11 15:07:00,76.8,25.7,31.82,SW,225,7.0,18.0,15,0.00,,,0.00,meteohub,2013-06-11 21:07:00,
2013-06-11 15:13:00,76.8,25.7,31.82,SW,225,4.0,18.0,15,0.00,,,0.00,meteohub,2013-06-11 21:13:00,
2013-06-11 15:18:00,77.4,24.4,31.82,South,180,12.0,14.0,14,0.00,,,0.00,meteohub,2013-06-11 21:18:00,
2013-06-11 15:24:00,77.7,24.8,31.82,SE,135,5.0,12.0,14,0.00,,,0.00,meteohub,2013-06-11 21:24:00,
2013-06-11 15:30:00,77.4,24.4,31.82,SW,225,4.0,12.0,14,0.00,,,0.00,meteohub,2013-06-11 21:30:00,
2013-06-11 15:35:00,77.9,24.8,31.82,West,270,6.0,11.0,14,0.00,,,0.00,meteohub,2013-06-11 21:35:00,
2013-06-11 15:41:00,77.7,24.8,31.82,West,270,2.0,15.0,14,0.00,,,0.00,meteohub,2013-06-11 21:41:00,
2013-06-11 15:47:00,77.9,24.8,31.83,East,90,4.0,15.0,14,0.00,,,0.00,meteohub,2013-06-11 21:47:00,
2013-06-11 15:52:00,77.9,24.8,31.83,NE,45,6.0,15.0,14,0.00,,,0.00,meteohub,2013-06-11 21:52:00,
2013-06-11 15:57:00,77.0,24.1,31.82,SW,225,15.0,15.0,14,0.00,,,0.00,meteohub,2013-06-11 21:57:00,
2013-06-11 16:03:00,77.2,24.3,31.82,SW,225,11.0,15.0,14,0.00,,,0.00,meteohub,2013-06-11 22:03:00,
2013-06-11 16:09:00,76.3,25.2,31.82,West,270,9.0,15.0,15,0.00,,,0.00,meteohub,2013-06-11 22:09:00,
2013-06-11 16:14:00,76.1,25.2,31.82,West,270,18.0,18.0,15,0.00,,,0.00,meteohub,2013-06-11 22:14:00,
2013-06-11 16:20:00,75.6,24.6,31.82,West,270,16.0,18.0,15,0.00,,,0.00,meteohub,2013-06-11 22:20:00,
2013-06-11 16:26:00,75.9,25.0,31.82,SW,225,11.0,21.0,15,0.00,,,0.00,meteohub,2013-06-11 22:26:00,
2013-06-11 16:31:00,75.7,24.8,31.82,West,270,8.0,21.0,15,0.00,,,0.00,meteohub,2013-06-11 22:31:00,
2013-06-11 16:37:00,75.9,25.0,31.82,SW,225,13.0,21.0,15,0.00,,,0.00,meteohub,2013-06-11 22:37:00,
2013-06-11 16:42:00,75.9,25.0,31.82,SW,225,5.0,15.0,15,0.00,,,0.00,meteohub,2013-06-11 22:42:00,
2013-06-11 16:47:00,76.1,25.2,31.82,SE,135,11.0,13.0,15,0.00,,,0.00,meteohub,2013-06-11 22:47:00,
2013-06-11 16:52:00,75.9,25.0,31.82,SW,225,20.0,20.0,15,0.00,,,0.00,meteohub,2013-06-11 22:52:00,
2013-06-11 16:58:00,75.0,25.7,31.82,NW,315,11.0,18.0,16,0.00,,,0.00,meteohub,2013-06-11 22:58:00,
2013-06-11 17:03:00,74.8,25.7,31.82,SW,225,23.0,23.0,16,0.00,,,0.00,meteohub,2013-06-11 23:03:00,
2013-06-11 17:08:00,74.3,25.2,31.83,SW,225,10.0,23.0,16,0.00,,,0.00,meteohub,2013-06-11 23:08:00,
2013-06-11 17:14:00,74.8,25.7,31.83,South,180,8.0,23.0,16,0.00,,,0.00,meteohub,2013-06-11 23:14:00,
2013-06-11 17:19:00,75.0,25.7,31.83,South,180,6.0,23.0,16,0.00,,,0.00,meteohub,2013-06-11 23:19:00,
2013-06-11 17:25:00,75.6,24.6,31.83,South,180,4.0,14.0,15,0.00,,,0.00,meteohub,2013-06-11 23:25:00,
2013-06-11 17:30:00,75.7,24.8,31.83,West,270,14.0,14.0,15,0.00,,,0.00,meteohub,2013-06-11 23:30:00,
2013-06-11 17:36:00,75.0,25.7,31.83,NW,315,5.0,17.0,16,0.00,,,0.00,meteohub,2013-06-11 23:36:00,
2013-06-11 17:41:00,74.8,25.7,31.83,SW,225,9.0,17.0,16,0.00,,,0.00,meteohub,2013-06-11 23:41:00,
2013-06-11 17:46:00,74.7,25.5,31.83,SW,225,11.0,15.0,16,0.00,,,0.00,meteohub,2013-06-11 23:46:00,
2013-06-11 17:51:00,74.7,25.5,31.83,West,270,9.0,15.0,16,0.00,,,0.00,meteohub,2013-06-11 23:51:00,
2013-06-11 17:57:00,74.8,25.7,31.83,South,180,5.0,11.0,16,0.00,,,0.00,meteohub,2013-06-11 23:57:00,
2013-06-11 18:02:00,74.5,25.3,31.83,West,270,4.0,11.0,16,0.00,,,0.00,meteohub,2013-06-12 00:02:00,
2013-06-11 18:07:00,74.8,25.7,31.83,SW,225,8.0,9.0,16,0.00,,,0.00,meteohub,2013-06-12 00:07:00,
2013-06-11 18:13:00,75.0,25.7,31.83,SW,225,4.0,9.0,16,0.00,,,0.00,meteohub,2013-06-12 00:13:00,
2013-06-11 18:18:00,74.5,25.3,31.83,NW,315,13.0,13.0,16,0.00,,,0.00,meteohub,2013-06-12 00:18:00,
2013-06-11 18:24:00,73.2,19.4,31.83,West,270,7.0,15.0,13,0.00,,,0.00,meteohub,2013-06-12 00:24:00,
2013-06-11 18:29:00,72.7,19.0,31.84,SW,225,9.0,17.0,13,0.00,,,0.00,meteohub,2013-06-12 00:29:00,
2013-06-11 18:35:00,72.3,18.7,31.83,South,180,8.0,17.0,13,0.00,,,0.00,meteohub,2013-06-12 00:35:00,
2013-06-11 18:40:00,72.3,18.7,31.83,NW,315,5.0,17.0,13,0.00,,,0.00,meteohub,2013-06-12 00:40:00,
2013-06-11 18:45:00,72.3,18.7,31.84,West,270,7.0,17.0,13,0.00,,,0.00,meteohub,2013-06-12 00:45:00,
2013-06-11 18:51:00,72.0,18.5,31.84,West,270,8.0,13.0,13,0.00,,,0.00,meteohub,2013-06-12 00:51:00,
2013-06-11 18:56:00,71.6,18.1,31.84,SSW,203,4.0,13.0,13,0.00,,,0.00,meteohub,2013-06-12 00:56:00,
2013-06-11 19:01:00,71.6,18.1,31.84,West,270,4.0,11.0,13,0.00,,,0.00,meteohub,2013-06-12 01:01:00,
2013-06-11 19:07:00,71.6,18.1,31.84,SE,135,4.0,10.0,13,0.00,,,0.00,meteohub,2013-06-12 01:07:00,
2013-06-11 19:12:00,71.1,19.4,31.84,West,270,4.0,10.0,14,0.00,,,0.00,meteohub,2013-06-12 01:12:00,
2013-06-11 19:17:00,70.9,19.2,31.84,West,270,2.0,10.0,14,0.00,,,0.00,meteohub,2013-06-12 01:17:00,
2013-06-11 19:22:00,70.7,19.2,31.85,West,270,6.0,8.0,14,0.00,,,0.00,meteohub,2013-06-12 01:22:00,
2013-06-11 19:27:00,69.8,18.5,31.85,West,270,4.0,10.0,14,0.00,,,0.00,meteohub,2013-06-12 01:27:00,
2013-06-11 19:32:00,69.1,19.4,31.85,SW,225,5.0,10.0,15,0.00,,,0.00,meteohub,2013-06-12 01:32:00,
2013-06-11 19:37:00,68.4,18.9,31.85,West,270,6.0,8.0,15,0.00,,,0.00,meteohub,2013-06-12 01:37:00,
2013-06-11 19:42:00,68.0,18.7,31.85,SW,225,2.0,8.0,15,0.00,,,0.00,meteohub,2013-06-12 01:42:00,
2013-06-11 19:47:00,67.6,19.8,31.86,SE,135,4.0,6.0,16,0.00,,,0.00,meteohub,2013-06-12 01:47:00,
2013-06-11 19:53:00,67.3,19.6,31.86,SW,225,6.0,8.0,16,0.00,,,0.00,meteohub,2013-06-12 01:53:00,
2013-06-11 19:58:00,66.7,20.5,31.86,SSW,203,2.0,8.0,17,0.00,,,0.00,meteohub,2013-06-12 01:58:00,
2013-06-11 20:03:00,66.4,20.3,31.86,SW,225,4.0,8.0,17,0.00,,,0.00,meteohub,2013-06-12 02:03:00,
2013-06-11 20:09:00,64.9,20.5,31.86,SW,225,5.0,7.0,18,0.00,,,0.00,meteohub,2013-06-12 02:09:00,
2013-06-11 20:14:00,64.6,20.1,31.86,West,270,3.0,4.0,18,0.00,,,0.00,meteohub,2013-06-12 02:14:00,
2013-06-11 20:19:00,64.0,21.0,31.86,SW,225,3.0,5.0,19,0.00,,,0.00,meteohub,2013-06-12 02:19:00,
2013-06-11 20:24:00,63.3,20.3,31.86,NW,315,2.0,5.0,19,0.00,,,0.00,meteohub,2013-06-12 02:24:00,
2013-06-11 20:30:00,62.8,19.9,31.87,WNW,293,2.0,5.0,19,0.00,,,0.00,meteohub,2013-06-12 02:30:00,
2013-06-11 20:35:00,62.4,20.8,31.87,South,180,4.0,6.0,20,0.00,,,0.00,meteohub,2013-06-12 02:35:00,
2013-06-11 20:41:00,62.6,19.8,31.87,SW,225,3.0,6.0,19,0.00,,,0.00,meteohub,2013-06-12 02:41:00,
2013-06-11 20:47:00,62.8,19.9,31.87,West,270,8.0,8.0,19,0.00,,,0.00,meteohub,2013-06-12 02:47:00,
2013-06-11 20:52:00,63.0,20.1,31.87,SW,225,1.0,11.0,19,0.00,,,0.00,meteohub,2013-06-12 02:52:00,
2013-06-11 20:57:00,62.6,19.8,31.87,West,270,2.0,11.0,19,0.00,,,0.00,meteohub,2013-06-12 02:57:00,
2013-06-11 21:02:00,61.9,20.3,31.88,WSW,248,7.0,11.0,20,0.00,,,0.00,meteohub,2013-06-12 03:02:00,
2013-06-11 21:07:00,62.2,20.7,31.88,West,270,4.0,8.0,20,0.00,,,0.00,meteohub,2013-06-12 03:07:00,
2013-06-11 21:12:00,61.9,20.3,31.88,WSW,248,6.0,8.0,20,0.00,,,0.00,meteohub,2013-06-12 03:12:00,
2013-06-11 21:17:00,61.9,20.3,31.88,NW,315,2.0,8.0,20,0.00,,,0.00,meteohub,2013-06-12 03:17:00,
2013-06-11 21:23:00,61.7,20.1,31.88,North,0,2.0,8.0,20,0.00,,,0.00,meteohub,2013-06-12 03:23:00,
2013-06-11 21:29:00,61.0,19.6,31.89,NE,45,0.0,8.0,20,0.00,,,0.00,meteohub,2013-06-12 03:29:00,
2013-06-11 21:34:00,59.7,19.8,31.89,West,270,0.0,6.0,21,0.00,,,0.00,meteohub,2013-06-12 03:34:00,
2013-06-11 21:39:00,58.6,21.0,31.89,SW,225,0.0,6.0,23,0.00,,,0.00,meteohub,2013-06-12 03:39:00,
2013-06-11 21:45:00,57.4,19.9,31.90,NW,315,0.0,2.0,23,0.00,,,0.00,meteohub,2013-06-12 03:45:00,
2013-06-11 21:51:00,56.5,21.0,31.90,NW,315,2.0,2.0,25,0.00,,,0.00,meteohub,2013-06-12 03:51:00,
2013-06-11 21:56:00,56.1,20.8,31.90,NW,315,0.0,2.0,25,0.00,,,0.00,meteohub,2013-06-12 03:56:00,
2013-06-11 22:01:00,55.9,20.7,31.90,NW,315,2.0,2.0,25,0.00,,,0.00,meteohub,2013-06-12 04:01:00,
2013-06-11 22:02:00,55.9,20.7,31.90,NW,315,2.0,2.0,25,0.00,,,0.00,meteohub,2013-06-12 04:02:00,
2013-06-11 22:03:00,55.9,20.7,31.91,NW,315,2.0,2.0,25,0.00,,,0.00,meteohub,2013-06-12 04:03:00,
2013-06-11 22:06:00,55.9,20.7,31.91,NW,315,2.0,2.0,25,0.00,,,0.00,meteohub,2013-06-12 04:06:00,
2013-06-11 22:11:00,55.6,20.3,31.91,West,270,2.0,2.0,25,0.00,,,0.00,meteohub,2013-06-12 04:11:00,
2013-06-11 22:17:00,55.4,20.1,31.91,South,180,0.0,2.0,25,0.00,,,0.00,meteohub,2013-06-12 04:17:00,
2013-06-11 22:22:00,54.7,17.6,31.91,SW,225,0.0,2.0,23,0.00,,,0.00,meteohub,2013-06-12 04:22:00,
2013-06-11 22:27:00,54.0,17.1,31.91,North,0,0.0,2.0,23,0.00,,,0.00,meteohub,2013-06-12 04:27:00,
2013-06-11 22:32:00,53.4,18.5,31.91,West,270,2.0,0.0,25,0.00,,,0.00,meteohub,2013-06-12 04:32:00,
2013-06-11 22:37:00,53.6,17.6,31.91,West,270,2.0,2.0,24,0.00,,,0.00,meteohub,2013-06-12 04:37:00,
2013-06-11 22:42:00,54.0,18.0,31.92,West,270,0.0,3.0,24,0.00,,,0.00,meteohub,2013-06-12 04:42:00,
2013-06-11 22:47:00,53.4,18.5,31.92,SW,225,0.0,3.0,25,0.00,,,0.00,meteohub,2013-06-12 04:47:00,
2013-06-11 22:52:00,53.1,18.1,31.92,SW,225,2.0,3.0,25,0.00,,,0.00,meteohub,2013-06-12 04:52:00,
2013-06-11 22:57:00,52.5,17.8,31.92,SW,225,3.0,3.0,25,0.00,,,0.00,meteohub,2013-06-12 04:57:00,
2013-06-11 23:02:00,52.2,18.3,31.92,West,270,2.0,3.0,26,0.00,,,0.00,meteohub,2013-06-12 05:02:00,
2013-06-11 23:07:00,52.3,18.5,31.92,West,270,2.0,3.0,26,0.00,,,0.00,meteohub,2013-06-12 05:07:00,
2013-06-11 23:12:00,52.3,18.5,31.92,West,270,3.0,4.0,26,0.00,,,0.00,meteohub,2013-06-12 05:12:00,
2013-06-11 23:18:00,52.5,17.8,31.92,West,270,4.0,4.0,25,0.00,,,0.00,meteohub,2013-06-12 05:18:00,
2013-06-11 23:23:00,52.5,17.8,31.92,North,0,2.0,4.0,25,0.00,,,0.00,meteohub,2013-06-12 05:23:00,
2013-06-11 23:29:00,52.7,17.8,31.92,West,270,4.0,4.0,25,0.00,,,0.00,meteohub,2013-06-12 05:29:00,
2013-06-11 23:34:00,52.9,18.0,31.92,West,270,4.0,5.0,25,0.00,,,0.00,meteohub,2013-06-12 05:34:00,
2013-06-11 23:40:00,52.9,18.0,31.92,West,270,2.0,5.0,25,0.00,,,0.00,meteohub,2013-06-12 05:40:00,
2013-06-11 23:45:00,52.9,18.0,31.92,NW,315,2.0,4.0,25,0.00,,,0.00,meteohub,2013-06-12 05:45:00,
2013-06-11 23:51:00,52.5,17.8,31.92,West,270,2.0,4.0,25,0.00,,,0.00,meteohub,2013-06-12 05:51:00,
2013-06-11 23:56:00,52.2,17.4,31.92,NW,315,4.0,4.0,25,0.00,,,0.00,meteohub,2013-06-12 05:56:00,